******** Week 150 almanac for PRN-1 ******** ID: 1 Health: 0 Eccentricity: 0.01144599915 Time of Applicability(s): 503808 Orbital Inclination(rad): 0.9868673651 Rate of Right Ascen(r/s): -7.920329913e-09 SQRT(A) (m 1/2): 5153.624512 Right Ascen at Week(rad): -2.038556729 Argument of Perigee(rad): 0.8830381382 Mean Anom(rad): -0.7481983806 Af0(s): 0.0003338777222 Af1(s/s): -1.091394e-11 week: 150 ******** Week 150 almanac for PRN-2 ******** ID: 2 Health: 0 Eccentricity: 0.02063322067 Time of Applicability(s): 503808 Orbital Inclination(rad): 0.9652058786 Rate of Right Ascen(r/s): -8.091765626e-09 SQRT(A) (m 1/2): 5153.649902 Right Ascen at Week(rad): -2.128047805 Argument of Perigee(rad): -1.438410714 Mean Anom(rad): -0.6073668851 Af0(s): -0.0005147595581 Af1(s/s): 0 week: 150 ******** Week 150 almanac for PRN-3 ******** ID: 3 Health: 0 Eccentricity: 0.003890037537 Time of Applicability(s): 503808 Orbital Inclination(rad): 0.9725641927 Rate of Right Ascen(r/s): -7.726036106e-09 SQRT(A) (m 1/2): 5153.630371 Right Ascen at Week(rad): -1.003200216 Argument of Perigee(rad): 0.9540296905 Mean Anom(rad): -1.896891956 Af0(s): -0.0001092827759 Af1(s/s): -1.818989e-11 week: 150 ******** Week 150 almanac for PRN-4 ******** ID: 4 Health: 0 Eccentricity: 0.001722812653 Time of Applicability(s): 503808 Orbital Inclination(rad): 0.9615566821 Rate of Right Ascen(r/s): -7.726036106e-09 SQRT(A) (m 1/2): 5153.595215 Right Ascen at Week(rad): 0.0779659967 Argument of Perigee(rad): -3.046925517 Mean Anom(rad): 1.022395199 Af0(s): -0.000147720166 Af1(s/s): 3.637979e-12 week: 150 ******** Week 150 almanac for PRN-5 ******** ID: 5 Health: 0 Eccentricity: 0.00585603714 Time of Applicability(s): 503808 Orbital Inclination(rad): 0.9595373402 Rate of Right Ascen(r/s): -7.863184676e-09 SQRT(A) (m 1/2): 5153.626465 Right Ascen at Week(rad): -1.043747343 Argument of Perigee(rad): 1.008435825 Mean Anom(rad): 1.90797287 Af0(s): -5.727924805e-05 Af1(s/s): 0 week: 150 ******** Week 150 almanac for PRN-6 ******** ID: 6 Health: 0 Eccentricity: 0.002688407898 Time of Applicability(s): 503808 Orbital Inclination(rad): 0.9862501775 Rate of Right Ascen(r/s): -7.931758961e-09 SQRT(A) (m 1/2): 5153.631348 Right Ascen at Week(rad): -2.04682959 Argument of Perigee(rad): -0.9429656293 Mean Anom(rad): -0.434216931 Af0(s): 0.0001680693726 Af1(s/s): 1.091394e-11 week: 150 ******** Week 150 almanac for PRN-7 ******** ID: 7 Health: 0 Eccentricity: 0.01558732986 Time of Applicability(s): 503808 Orbital Inclination(rad): 0.9508128245 Rate of Right Ascen(r/s): -7.977475151e-09 SQRT(A) (m 1/2): 5153.625977 Right Ascen at Week(rad): 1.096577926 Argument of Perigee(rad): -2.289233383 Mean Anom(rad): -1.41910263 Af0(s): 0.0002472051758 Af1(s/s): 3.637979e-12 week: 150 ******** Week 150 almanac for PRN-8 ******** ID: 8 Health: 0 Eccentricity: 0.007343292236 Time of Applicability(s): 503808 Orbital Inclination(rad): 0.9648942888 Rate of Right Ascen(r/s): -7.954617056e-09 SQRT(A) (m 1/2): 5153.679688 Right Ascen at Week(rad): -3.118256373 Argument of Perigee(rad): 0.1137707412 Mean Anom(rad): 1.503892519 Af0(s): -4.522045898e-05 Af1(s/s): 0 week: 150 ******** Week 150 almanac for PRN-9 ******** ID: 9 Health: 0 Eccentricity: 0.002227306366 Time of Applicability(s): 503808 Orbital Inclination(rad): 0.9545578948 Rate of Right Ascen(r/s): -7.794610391e-09 SQRT(A) (m 1/2): 5153.560059 Right Ascen at Week(rad): 0.02494628767 Argument of Perigee(rad): 1.877425455 Mean Anom(rad): 1.878857195 Af0(s): -0.0002788594971 Af1(s/s): 3.637979e-12 week: 150 ******** Week 150 almanac for PRN-10 ******** ID: 10 Health: 0 Eccentricity: 0.007538318634 Time of Applicability(s): 503808 Orbital Inclination(rad): 0.9723784372 Rate of Right Ascen(r/s): -7.703178011e-09 SQRT(A) (m 1/2): 5153.63623 Right Ascen at Week(rad): -1.005986174 Argument of Perigee(rad): -2.50814173 Mean Anom(rad): -2.785798245 Af0(s): -0.0002615249878 Af1(s/s): -1.091394e-11 week: 150 ******** Week 150 almanac for PRN-11 ******** ID: 11 Health: 255 Eccentricity: 0.0002751350403 Time of Applicability(s): 503808 Orbital Inclination(rad): 0.9619701379 Rate of Right Ascen(r/s): -8.160339911e-09 SQRT(A) (m 1/2): 5153.726074 Right Ascen at Week(rad): -1.995024407 Argument of Perigee(rad): 2.812883716 Mean Anom(rad): 1.421797583 Af0(s): -6.104761963e-05 Af1(s/s): 1.091394e-11 week: 150 ******** Week 150 almanac for PRN-12 ******** ID: 12 Health: 0 Eccentricity: 0.008704185486 Time of Applicability(s): 503808 Orbital Inclination(rad): 0.9700175449 Rate of Right Ascen(r/s): -7.668890868e-09 SQRT(A) (m 1/2): 5153.550293 Right Ascen at Week(rad): 2.209704194 Argument of Perigee(rad): 1.249352451 Mean Anom(rad): -2.065333608 Af0(s): -0.0001394297485 Af1(s/s): -7.275958e-12 week: 150 ******** Week 150 almanac for PRN-13 ******** ID: 13 Health: 0 Eccentricity: 0.005807876587 Time of Applicability(s): 503808 Orbital Inclination(rad): 0.9689869016 Rate of Right Ascen(r/s): -7.680319916e-09 SQRT(A) (m 1/2): 5153.620605 Right Ascen at Week(rad): 0.1778953326 Argument of Perigee(rad): 0.9543641252 Mean Anom(rad): 0.9516272279 Af0(s): 0.0002117824829 Af1(s/s): 7.275958e-12 week: 150 ******** Week 150 almanac for PRN-14 ******** ID: 14 Health: 0 Eccentricity: 0.001467227936 Time of Applicability(s): 503808 Orbital Inclination(rad): 0.9534134013 Rate of Right Ascen(r/s): -7.851755628e-09 SQRT(A) (m 1/2): 5153.600098 Right Ascen at Week(rad): 2.178239237 Argument of Perigee(rad): 3.024352481 Mean Anom(rad): -2.007355051 Af0(s): -6.933803711e-05 Af1(s/s): -3.637979e-12 week: 150 ******** Week 150 almanac for PRN-15 ******** ID: 15 Health: 0 Eccentricity: 0.01393461227 Time of Applicability(s): 503808 Orbital Inclination(rad): 0.9303976974 Rate of Right Ascen(r/s): -8.046049436e-09 SQRT(A) (m 1/2): 5153.684082 Right Ascen at Week(rad): -0.08132682278 Argument of Perigee(rad): 1.077371708 Mean Anom(rad): 0.5148351865 Af0(s): -6.406231689e-05 Af1(s/s): 3.637979e-12 week: 150 ******** Week 150 almanac for PRN-16 ******** ID: 16 Health: 0 Eccentricity: 0.01278352737 Time of Applicability(s): 503808 Orbital Inclination(rad): 0.9699756001 Rate of Right Ascen(r/s): -7.657461821e-09 SQRT(A) (m 1/2): 5153.564453 Right Ascen at Week(rad): 2.228319066 Argument of Perigee(rad): 0.7105555556 Mean Anom(rad): 2.363027372 Af0(s): -0.0003745761353 Af1(s/s): -3.637979e-12 week: 150 ******** Week 150 almanac for PRN-17 ******** ID: 17 Health: 0 Eccentricity: 0.01357221603 Time of Applicability(s): 503808 Orbital Inclination(rad): 0.9800303648 Rate of Right Ascen(r/s): -7.817468486e-09 SQRT(A) (m 1/2): 5153.722168 Right Ascen at Week(rad): -3.036248696 Argument of Perigee(rad): -1.4956646 Mean Anom(rad): 1.416123052 Af0(s): 0.0004582339844 Af1(s/s): 3.637979e-12 week: 150 ******** Week 150 almanac for PRN-18 ******** ID: 18 Health: 0 Eccentricity: 0.002111434937 Time of Applicability(s): 503808 Orbital Inclination(rad): 0.9706587009 Rate of Right Ascen(r/s): -8.091765626e-09 SQRT(A) (m 1/2): 5153.570312 Right Ascen at Week(rad): -2.03089469 Argument of Perigee(rad): 3.096089302 Mean Anom(rad): -0.5311891594 Af0(s): 0.0001838965332 Af1(s/s): -7.275958e-12 week: 150 ******** Week 150 almanac for PRN-19 ******** ID: 19 Health: 0 Eccentricity: 0.008997917175 Time of Applicability(s): 503808 Orbital Inclination(rad): 0.9787959897 Rate of Right Ascen(r/s): -7.851755628e-09 SQRT(A) (m 1/2): 5153.644043 Right Ascen at Week(rad): -2.991399607 Argument of Perigee(rad): 2.011079523 Mean Anom(rad): -2.449673693 Af0(s): 9.797766113e-05 Af1(s/s): 3.637979e-12 week: 150 ******** Week 150 almanac for PRN-20 ******** ID: 20 Health: 0 Eccentricity: 0.005129814148 Time of Applicability(s): 503808 Orbital Inclination(rad): 0.9417167978 Rate of Right Ascen(r/s): -8.068907531e-09 SQRT(A) (m 1/2): 5153.705078 Right Ascen at Week(rad): -1.1579997 Argument of Perigee(rad): -3.140650021 Mean Anom(rad): 0.2541887809 Af0(s): 0.0004084914795 Af1(s/s): 0 week: 150 ******** Week 150 almanac for PRN-21 ******** ID: 21 Health: 0 Eccentricity: 0.02458000183 Time of Applicability(s): 503808 Orbital Inclination(rad): 0.9594654349 Rate of Right Ascen(r/s): -8.126052768e-09 SQRT(A) (m 1/2): 5153.527832 Right Ascen at Week(rad): -2.129747318 Argument of Perigee(rad): -0.9978114346 Mean Anom(rad): 1.61296844 Af0(s): 0.0001251099365 Af1(s/s): 0 week: 150 ******** Week 150 almanac for PRN-22 ******** ID: 22 Health: 0 Eccentricity: 0.01296234131 Time of Applicability(s): 503808 Orbital Inclination(rad): 0.9617064849 Rate of Right Ascen(r/s): -7.760323248e-09 SQRT(A) (m 1/2): 5153.60498 Right Ascen at Week(rad): 0.1262669172 Argument of Perigee(rad): -1.871205268 Mean Anom(rad): 1.302409611 Af0(s): 0.0001733450928 Af1(s/s): 7.275958e-12 week: 150 ******** Week 150 almanac for PRN-23 ******** ID: 23 Health: 0 Eccentricity: 0.001996517181 Time of Applicability(s): 503808 Orbital Inclination(rad): 0.9674289523 Rate of Right Ascen(r/s): -7.771752296e-09 SQRT(A) (m 1/2): 5153.658203 Right Ascen at Week(rad): -1.030901003 Argument of Perigee(rad): 2.981404764 Mean Anom(rad): -1.481862518 Af0(s): -1.507348633e-06 Af1(s/s): -3.637979e-12 week: 150 ******** Week 150 almanac for PRN-24 ******** ID: 24 Health: 0 Eccentricity: 0.01236057281 Time of Applicability(s): 503808 Orbital Inclination(rad): 0.9343524916 Rate of Right Ascen(r/s): -8.137481816e-09 SQRT(A) (m 1/2): 5153.62793 Right Ascen at Week(rad): 1.013639225 Argument of Perigee(rad): 0.8091400368 Mean Anom(rad): -0.4527685112 Af0(s): 0.0002155508545 Af1(s/s): -3.637979e-12 week: 150 ******** Week 150 almanac for PRN-25 ******** ID: 25 Health: 0 Eccentricity: 0.01053142548 Time of Applicability(s): 503808 Orbital Inclination(rad): 0.9574221245 Rate of Right Ascen(r/s): -7.817468486e-09 SQRT(A) (m 1/2): 5153.657227 Right Ascen at Week(rad): 2.132835878 Argument of Perigee(rad): 0.9831022966 Mean Anom(rad): -2.327498265 Af0(s): 0.0002298706665 Af1(s/s): 3.637979e-12 week: 150 ******** Week 150 almanac for PRN-26 ******** ID: 26 Health: 0 Eccentricity: 0.006906032562 Time of Applicability(s): 503808 Orbital Inclination(rad): 0.9382413726 Rate of Right Ascen(r/s): -7.988904198e-09 SQRT(A) (m 1/2): 5153.651855 Right Ascen at Week(rad): 2.085633012 Argument of Perigee(rad): 0.3731999989 Mean Anom(rad): -2.980898056 Af0(s): 0.0001469664917 Af1(s/s): 3.637979e-12 week: 150 ******** Week 150 almanac for PRN-27 ******** ID: 27 Health: 0 Eccentricity: 0.0103020668 Time of Applicability(s): 503808 Orbital Inclination(rad): 0.9736068203 Rate of Right Ascen(r/s): -7.886042771e-09 SQRT(A) (m 1/2): 5153.60791 Right Ascen at Week(rad): -3.098755417 Argument of Perigee(rad): 0.6427461895 Mean Anom(rad): 1.471541479 Af0(s): 0.0001055144043 Af1(s/s): 1.455192e-11 week: 150 ******** Week 150 almanac for PRN-29 ******** ID: 29 Health: 0 Eccentricity: 0.001864433289 Time of Applicability(s): 503808 Orbital Inclination(rad): 0.9820497067 Rate of Right Ascen(r/s): -7.817468486e-09 SQRT(A) (m 1/2): 5153.705078 Right Ascen at Week(rad): -3.02322072 Argument of Perigee(rad): 2.24211216 Mean Anom(rad): 1.607630592 Af0(s): -0.0003828665527 Af1(s/s): -3.637979e-12 week: 150 ******** Week 150 almanac for PRN-30 ******** ID: 30 Health: 0 Eccentricity: 0.005544662476 Time of Applicability(s): 503808 Orbital Inclination(rad): 0.9359763541 Rate of Right Ascen(r/s): -8.137481816e-09 SQRT(A) (m 1/2): 5153.508301 Right Ascen at Week(rad): 1.109554595 Argument of Perigee(rad): -2.740224484 Mean Anom(rad): -1.375357962 Af0(s): -0.0004077378052 Af1(s/s): -3.637979e-12 week: 150 ******** Week 150 almanac for PRN-31 ******** ID: 31 Health: 0 Eccentricity: 0.01045608521 Time of Applicability(s): 503808 Orbital Inclination(rad): 0.9550252796 Rate of Right Ascen(r/s): -7.920329913e-09 SQRT(A) (m 1/2): 5153.632324 Right Ascen at Week(rad): 1.114716425 Argument of Perigee(rad): 0.3784078937 Mean Anom(rad): -1.872781568 Af0(s): -0.0001311393311 Af1(s/s): 0 week: 150 ******** Week 150 almanac for PRN-32 ******** ID: 32 Health: 0 Eccentricity: 0.00562953949 Time of Applicability(s): 503808 Orbital Inclination(rad): 0.9584108231 Rate of Right Ascen(r/s): -7.771752296e-09 SQRT(A) (m 1/2): 5153.723633 Right Ascen at Week(rad): 0.03619123571 Argument of Perigee(rad): -2.347536638 Mean Anom(rad): 2.105259802 Af0(s): -5.878659668e-05 Af1(s/s): -7.275958e-12 week: 150